Location: Kellogg
(38.0159°N, 90.0546°W)
Time: 00:49:07
(UTC+00:00)

Transit 2A - Pass Details

Date: 17 September 2024
Orbit: 590 x 960 km, 66.7° (Epoch: 09 October)

Event Time Altitude Azimuth Distance (km) Brightness Sun altitude
Rises 08:45:58 0° 334° (NNW) 3,625 9.6 -33.8°
Reaches altitude 10° 08:48:39 10° 339° (NNW) 2,651 8.9 -33.3°
Maximum altitude 08:54:46 59° 58° (ENE) 1,021 6.7 -32.3°
Drops below altitude 10° 09:00:23 10° 138° (SE) 2,436 8.7 -31.4°
Sets 09:02:45 0° 142° (SE) 3,310 9.4 -31.0°
